Date String (YYYY-MM-DD hh:mm:ss) UTC,Instrument flags,Ambient pressure (hPa),Sample flow (lpm),Bypass flow (lpm),Sample temperature (°C),Ambient temperature (°C),ASC tube jacket temperature (°C),LED temperature (°C),Box temperature (°C),Sample RH (%),Span deviation,Mass concentration (μg/m³),Mass concentration (μg/m³),Mass concentration (μg/m³)
DateTimeUTC,F1_M11,P_M11,Q1_M11,Q2_M11,T1_M11,T2_M11,T3_M11,T4_M11,T5_M11,U1_M11,ZSPAN_M11,X0_M11,X2_M11,X1_M11
2023-05-05 18:00:00,,0823.9,4.99,0.00,30.2,27.4,00.0,38.4,31.6,16.5,0000.0,0012.38,0004.44,0003.09
2023-05-05 18:01:00,,0823.8,5.00,0.00,30.1,25.7,00.0,38.3,31.3,16.2,0000.0,0012.22,0004.40,0003.11
2023-05-05 18:02:00,,0823.8,5.01,0.00,30.0,25.5,00.0,38.2,31.1,16.6,0000.0,0012.15,0004.39,0003.11
2023-05-05 18:03:00,,0823.8,5.02,0.00,29.9,25.8,00.0,38.2,31.0,16.8,0000.0,0012.28,0004.45,0003.12
2023-05-05 18:04:00,,0823.8,4.99,0.00,29.8,26.2,00.0,38.2,31.0,16.9,0000.0,0012.30,0004.49,0003.14
2023-05-05 18:05:00,,0823.7,4.99,0.00,29.8,26.6,00.0,38.2,31.1,17.3,0000.0,0012.61,0004.57,0003.16
2023-05-05 18:06:00,,0823.7,4.99,0.00,29.8,26.9,00.0,38.2,31.1,17.6,0000.0,0013.48,0004.64,0003.18
2023-05-05 18:07:00,,0823.7,5.00,0.00,29.8,27.2,00.0,38.2,31.2,17.6,0000.0,0013.95,0004.70,0003.22
2023-05-05 18:08:00,,0823.7,5.01,0.00,29.8,27.5,00.0,38.2,31.2,17.5,0000.0,0014.36,0004.65,0003.24
2023-05-05 18:09:00,,0823.7,5.00,0.00,29.8,27.7,00.0,38.2,31.2,17.5,0000.0,0014.03,0004.68,0003.26
2023-05-05 18:10:00,,0823.7,4.99,0.00,29.8,27.9,00.0,38.2,31.3,17.5,0000.0,0013.77,0004.70,0003.29
2023-05-05 18:11:00,,0823.7,5.01,0.00,29.8,28.1,00.0,38.2,31.3,17.7,0000.0,0012.72,0004.70,0003.30
2023-05-05 18:12:00,,0823.8,5.02,0.00,29.8,28.2,00.0,38.2,31.4,17.7,0000.0,0013.97,0004.86,0003.31
2023-05-05 18:13:00,,0823.8,4.99,0.00,29.9,28.3,00.0,38.2,31.4,17.6,0000.0,0014.51,0004.94,0003.34
2023-05-05 18:14:00,,0823.7,5.00,0.00,29.9,28.4,00.0,38.2,31.5,17.6,0000.0,0014.71,0004.97,0003.37
2023-05-05 18:15:00,,0823.7,5.01,0.00,29.9,28.5,00.0,38.2,31.5,17.7,0000.0,0015.04,0004.94,0003.37
2023-05-05 18:16:00,,0823.6,5.00,0.00,29.9,28.5,00.0,38.2,31.5,17.8,0000.0,0014.54,0004.90,0003.38
2023-05-05 18:17:00,,0823.6,4.99,0.00,29.9,28.6,00.0,38.2,31.5,17.5,0000.0,0013.53,0004.79,0003.36
2023-05-05 18:18:00,,0823.6,5.00,0.00,30.0,28.7,00.0,38.2,31.6,17.8,0000.0,0013.18,0004.71,0003.34
2023-05-05 18:19:00,,0823.5,5.00,0.00,30.0,28.7,00.0,38.3,31.6,17.6,0000.0,0012.23,0004.72,0003.33
2023-05-05 18:20:00,,0823.6,5.00,0.00,30.0,28.7,00.0,38.3,31.6,17.4,0000.0,0012.05,0004.70,0003.33
2023-05-05 18:21:00,,0823.6,5.00,0.00,30.0,28.8,00.0,38.3,31.6,17.1,0000.0,0011.88,0004.68,0003.33
2023-05-05 18:22:00,,0823.6,5.00,0.00,30.1,28.8,00.0,38.3,31.7,16.9,0000.0,0011.94,0004.68,0003.32
2023-05-05 18:23:00,,0823.6,5.00,0.00,30.1,28.9,00.0,38.3,31.7,16.9,0000.0,0010.98,0004.57,0003.32
2023-05-05 18:24:00,,0823.5,4.99,0.00,30.1,28.9,00.0,38.4,31.8,17.0,0000.0,0010.56,0004.53,0003.32
2023-05-05 18:25:00,,0823.5,4.99,0.00,30.2,29.0,00.0,38.4,31.8,16.7,0000.0,0010.31,0004.46,0003.29
2023-05-05 18:26:00,,0823.5,5.01,0.00,30.2,29.0,00.0,38.4,31.8,16.6,0000.0,0009.98,0004.46,0003.29
2023-05-05 18:27:00,,0823.5,4.99,0.00,30.2,27.7,00.0,38.3,31.7,16.3,0000.0,0010.58,0004.50,0003.28
2023-05-05 18:28:00,,0823.4,5.00,0.00,30.1,26.5,00.0,38.3,31.5,16.3,0000.0,0010.86,0004.55,0003.28
2023-05-05 18:29:00,,0823.4,5.01,0.00,30.0,26.4,00.0,38.2,31.3,16.4,0000.0,0010.71,0004.60,0003.27
2023-05-05 18:30:00,,0823.4,5.01,0.00,29.9,26.6,00.0,38.2,31.2,15.7,0000.0,0010.64,0004.56,0003.25
2023-05-05 18:31:00,,0823.4,5.01,0.00,29.9,27.0,00.0,38.2,31.3,15.9,0000.0,0010.66,0004.52,0003.24
2023-05-05 18:32:00,,0823.4,5.00,0.00,29.9,27.3,00.0,38.3,31.3,15.8,0000.0,0011.04,0004.54,0003.22
2023-05-05 18:33:00,,0823.4,5.00,0.00,29.9,27.5,00.0,38.3,31.3,15.9,0000.0,0011.65,0004.54,0003.22
2023-05-05 18:34:00,,0823.4,4.99,0.00,29.9,27.8,00.0,38.3,31.4,16.0,0000.0,0011.61,0004.53,0003.20
2023-05-05 18:35:00,,0823.4,5.00,0.00,29.9,28.0,00.0,38.3,31.4,15.9,0000.0,0012.03,0004.51,0003.19
2023-05-05 18:36:00,,0823.4,5.01,0.00,29.9,28.1,00.0,38.3,31.4,15.5,0000.0,0012.12,0004.53,0003.21
2023-05-05 18:37:00,,0823.4,4.98,0.00,29.9,28.3,00.0,38.3,31.5,15.4,0000.0,0012.29,0004.54,0003.20
2023-05-05 18:38:00,,0823.4,4.99,0.00,30.0,28.4,00.0,38.3,31.5,15.6,0000.0,0012.35,0004.56,0003.20
2023-05-05 18:39:00,,0823.3,5.01,0.00,30.0,28.5,00.0,38.3,31.5,15.4,0000.0,0012.74,0004.56,0003.22
2023-05-05 18:40:00,,0823.3,5.00,0.00,30.0,28.6,00.0,38.3,31.6,15.5,0000.0,0013.21,0004.60,0003.24
2023-05-05 18:41:00,,0823.3,5.00,0.00,30.0,28.7,00.0,38.3,31.6,16.0,0000.0,0013.84,0004.70,0003.26
2023-05-05 18:42:00,,0823.1,5.00,0.00,30.1,28.7,00.0,38.3,31.7,16.0,0000.0,0014.82,0004.77,0003.28
2023-05-05 18:43:00,,0823.2,4.99,0.00,30.1,28.8,00.0,38.3,31.7,15.9,0000.0,0014.55,0004.74,0003.29
2023-05-05 18:44:00,,0823.1,5.01,0.00,30.1,28.9,00.0,38.4,31.8,15.9,0000.0,0014.24,0004.77,0003.30
2023-05-05 18:45:00,,0823.0,4.99,0.00,30.1,28.9,00.0,38.4,31.7,15.8,0000.0,0014.60,0004.83,0003.30
2023-05-05 18:46:00,,0823.0,5.00,0.00,30.2,28.8,00.0,38.4,31.8,15.7,0000.0,0014.80,0004.84,0003.31
2023-05-05 18:47:00,,0823.0,5.00,0.00,30.2,27.2,00.0,38.3,31.6,15.8,0000.0,0014.66,0004.83,0003.31
2023-05-05 18:48:00,,0823.0,5.01,0.00,30.1,25.5,00.0,38.2,31.2,15.5,0000.0,0014.42,0004.81,0003.32
2023-05-05 18:49:00,,0823.0,5.02,0.00,30.0,25.4,00.0,38.2,31.2,15.6,0000.0,0013.89,0004.79,0003.35
2023-05-05 18:50:00,,0823.0,5.02,0.00,29.8,25.7,00.0,38.2,31.0,15.9,0000.0,0012.98,0004.82,0003.36
2023-05-05 18:51:00,,0823.0,4.99,0.00,29.8,26.1,00.0,38.2,31.0,16.1,0000.0,0013.01,0004.85,0003.36
2023-05-05 18:52:00,,0823.0,5.00,0.00,29.7,26.5,00.0,38.2,31.0,16.0,0000.0,0013.69,0004.79,0003.37
2023-05-05 18:53:00,,0823.0,5.01,0.00,29.7,26.9,00.0,38.1,31.1,16.1,0000.0,0013.19,0004.79,0003.38
2023-05-05 18:54:00,,0823.0,4.98,0.00,29.7,27.2,00.0,38.1,31.2,16.0,0000.0,0013.50,0004.83,0003.40
2023-05-05 18:55:00,,0823.0,5.00,0.00,29.8,27.5,00.0,38.1,31.2,16.4,0000.0,0014.03,0004.85,0003.40
2023-05-05 18:56:00,,0823.0,5.01,0.00,29.8,27.7,00.0,38.1,31.3,15.9,0000.0,0014.33,0004.83,0003.40
2023-05-05 18:57:00,,0822.9,5.00,0.00,29.8,27.9,00.0,38.1,31.3,15.7,0000.0,0014.29,0004.84,0003.38
2023-05-05 18:58:00,,0822.9,4.99,0.00,29.8,28.1,00.0,38.1,31.3,16.0,0000.0,0014.51,0004.86,0003.37
2023-05-05 18:59:00,,0822.9,5.01,0.00,29.8,28.2,00.0,38.1,31.4,16.2,0000.0,0014.54,0004.91,0003.37
